Regional Weather Roundup
Issued by NWS

Home | Current Version | Previous Version | Graphics & Text | Print | Product List | Glossary On
Versions: 1 2 3 4 5 6 7 8 9 10 11 12 13 14 15 16 17 18 19 20 21 22 23 24 25 26 27 28 29 30 31 32 33 34 35 36 37 38 39 40 41 42 43 44 45 46 47 48 49 50
000
ASUS45 KTFX 222119
RWRMT
MONTANA HOURLY WEATHER ROUNDUP
NATIONAL WEATHER SERVICE GREAT FALLS MT
319 PM MDT FRI AUG 22 2014

NOTE: "FAIR" INDICATES FEW OR NO CLOUDS BELOW 12000 FEET WITH NO
SIGNIFICANT WEATHER AND/OR OBSTRUCTIONS TO VISIBILITY.

* THESE STATIONS ARE NOT UNDER NWS QUALITY CONTROL. THEY DO NOT
   REPORT WEATHER SUCH AS PRECIPITATION OR FOG.

MTZ001>007-043-222200-
WEST OF THE DIVIDE
CITY           SKY/WX    TMP DP  RH WIND       PRES   REMARKS
KALISPELL      CLOUDY    57  52  83 NW6       30.10S
MISSOULA       CLOUDY    66  52  61 NW5       30.03F
BUTTE          CLOUDY    61  45  56 W3        30.09S
MULLAN PASS    CLOUDY    52  46  80 CALM      30.10F
* ESSEX        N/A       58  43  58 NE15G22    N/A
* LINCOLN      N/A       57  47  69 E10G17     N/A
* LOOKOUT PASS N/A       59  47  65 N12        N/A
* POLSON       N/A       60  49  67 N3         N/A
* RONAN APT    PTSUNNY   61  52  72 N15G22     N/A
* SEELEY LAKE  N/A       61  53  75 W4         N/A
* THOMP F APT  PTSUNNY   57  45  64 S9G18      N/A
$$

MTZ008-052>055-222200-
SOUTHWEST MONTANA
CITY           SKY/WX    TMP DP  RH WIND       PRES   REMARKS
BOZEMAN        CLOUDY    64  48  56 NE5       30.05F
DILLON         CLOUDY    61  48  62 N8        30.05F
W YELLOWSTONE  CLOUDY    55  46  72 SW8       30.11F
* THREE FORKS  PTSUNNY   64  34  33 N6         N/A
* BOULDER HILL N/A       50  46  86 N8         N/A
* MONIDA PASS  N/A       48  42  80 SW16G27    N/A
* RAYNOLDS PAS N/A       59  40  50 SE16G23    N/A
* WHITEHALL    N/A       65  48  54 E7G13      N/A
* WISE RIVER   N/A       60  45  58 E13G19     N/A
$$

MTZ009>010-012-014-046-048-049-054-222200-
EAST SLOPES AND CENTRAL MONTANA
CITY           SKY/WX    TMP DP  RH WIND       PRES   REMARKS
CUT BANK       CLOUDY    54  46  74 NE18      30.19R
GREAT FALLS    RAIN      55  52  90 N6        30.12S VSB 1 3/4
HELENA         CLOUDY    64  48  56 N15       30.08S
MALMSTROM AFB  PTSUNNY   57  52  83 N12       30.13S
* CONRAD       CLOUDY    55  55 100 N10        N/A
* DEARBORN     N/A       58  50  75 VRB6       N/A
* EAST GLACIER N/A       47  46  96 E14G23     N/A
* MONARCH      N/A       50  46  86 NW9        N/A
* PENDROY      N/A       51  50  96 N14        N/A
* ROGERS PASS  N/A       49  48  96 S4G11      N/A
* SAINT MARY   N/A       47  46  96 N5G14      N/A
* SWEET GRASS  N/A       49  49 100 NE20G29    N/A
* WHITE SULPH  N/A       63  48  58 NW8G14     N/A
$$

MTZ011-013-016-021-035-040-045-047-050-051-222200-
NORTH CENTRAL MONTANA
CITY           SKY/WX    TMP DP  RH WIND       PRES   REMARKS
HAVRE          RAIN      61  57  87 E13       30.11R VSB 3
LEWISTOWN      LGT RAIN  55  54  96 NW9       30.10S
* FORT BENTON  CLOUDY    59  55  87 N5        30.12R
* CHESTER      N/A       58  54  87 NE9G16     N/A
* DENTON       N/A       56  54  93 NW12       N/A
* GEYSER       N/A       57  49  75 NE8        N/A
* JUDITH GAP   N/A       53  53 100 VRB11      N/A
* LOMA         N/A       59  57  93 NW10       N/A
$$

MTZ017>020-022>027-061-062-222200-
NORTHEAST MONTANA
CITY           SKY/WX    TMP DP  RH WIND       PRES   REMARKS
GLASGOW        CLOUDY    66  55  68 E21G28    30.09F
GLENDIVE       CLOUDY    66  61  84 NE15G20   30.07F
JORDAN         CLOUDY    66  55  68 E18G24    30.06S
SIDNEY         CLOUDY    66  57  73 E12       30.11R
WOLF POINT     CLOUDY    66  57  73 NE13      30.09F
* BEAVER HILL  N/A       66  59  78 E16        N/A
* CIRCLE       N/A       60  59  97 NE4G14     N/A
* LINDSAY DVD  N/A       64  58  81 NE17       N/A
* SACO         N/A       64  56  75 E16        N/A
$$

MTZ028>042-056>058-222200-
SOUTHCENTRAL AND SOUTHEAST MONTANA
CITY           SKY/WX    TMP DP  RH WIND       PRES   REMARKS
BAKER          CLOUDY    72  57  59 E10       30.06F
BILLINGS       PTSUNNY   64  57  78 NE9       30.05F
LIVINGSTON     TSTM      55  48  77 CALM      30.07S
MILES CITY     PTSUNNY   72  55  55 NE6       30.03F
* LAUREL APT   PTSUNNY   64  55  73 N8         N/A
* HYSHAM       N/A       67  49  53 E6G12      N/A
* LAME DEER    N/A       63  56  78 NE8        N/A
* REED POINT   N/A       66  50  56 E9         N/A
* ROSCOE HILL  N/A       57  45  64 NW2        N/A
$$

REGIONAL REPORTS...DAKOTAS
CITY           SKY/WX    TMP DP  RH WIND       PRES   REMARKS
WILLISTON      CLOUDY    66  54  65 E12       30.11S
DICKINSON      CLOUDY    66  61  84 NE12      30.06F
BEACH          N/A       66  63  90 E15       30.08F
CROSBY         CLOUDY    64  55  73 NE8       30.15R
TIOGA          CLOUDY    64  59  84 NE14      30.15S
WATFORD CITY   CLOUDY    64  57  78 NE12      30.09S
BISMARCK       PTSUNNY   73  64  74 NE14      30.04S
GRAND FORKS    CLOUDY    72  64  76 N16       30.01S
FARGO          CLOUDY    72  66  81 N10       30.01R
BUFFALO SD     PTSUNNY   68  61  78 E13       30.01S
RAPID CITY     CLOUDY    73  61  66 E9        30.04F
$$

REGIONAL REPORTS...WYOMING/IDAHO/WASHINGTON
CITY           SKY/WX    TMP DP  RH WIND       PRES   REMARKS
GILLETTE       PTCLDY    79  52  39 SE9       30.01F
SHERIDAN       CLOUDY    68  55  63 NW7       30.02S
CODY           PTSUNNY  N/A N/A N/A CALM      30.05F
YELLOWSTONE LA CLOUDY    48  43  83 VRB5      30.20F
SALMON         CLOUDY    61  46  58 SW12      30.01F
MULLAN PASS    CLOUDY    52  46  80 CALM      30.10S
SAND POINT     CLOUDY    64  50  61 N21       30.05R
SPOKANE        PTCLDY    72  50  46 NE14      30.00F
$$

REGIONAL REPORTS...ALBERTA
CITY           SKY/WX    TMP DP  RH WIND       PRES   REMARKS
CALGARY        LGT RAIN  50  48  93 E9        30.31R
LETHBRIDGE     LGT RAIN  54  46  74 NE21G30   30.25S
MEDICINE HAT   LGT RAIN  50  48  93 N16       30.24S
EDMONTON       PTSUNNY   63  34  34 E9        30.34S
WATERTON GATE  N/A       48  45  89 NE10       N/A
CARDSTON       N/A       48  46  93 NE8        N/A
MILK RIVER     N/A       48  48 100 NE20G25    N/A
$$

REGIONAL REPORTS...SASKATCHEWAN
CITY           SKY/WX    TMP DP  RH WIND       PRES   REMARKS
SWIFT CURRENT  PTSUNNY   59  55  87 N/A       30.19F
MOOSE JAW      CLOUDY    66  50  56 E10G17    30.18F
REGINA         PTSUNNY   68  52  57 NE13G18   30.17F
VAL MARIE      N/A       61  54  78 NE16       N/A
ASSINIBOIA     N/A       64  48  56 NE16       N/A
CORONACH       N/A       63  54  73 NE12       N/A

$$




USA.gov is the U.S. government's official web portal to all federal, state and local government web resources and services.